Regional Weather Roundup
Issued by NWS Sterling, VA

Home | Current Version | Previous Version | Graphics & Text | Print | Product List | Glossary On
Versions: 1 2 3 4 5 6 7 8 9 10 11 12 13 14 15 16 17 18 19 20 21 22 23 24 25 26 27 28
000
ASUS41 KLWX 150811
RWRLWX

REGIONAL WEATHER ROUNDUP
NATIONAL WEATHER SERVICE BALTIMORE MD/WASHINGTON DC
300 AM EST FRI DEC 15 2017

Note: "FAIR" indicates few or no clouds below 12,000 feet
with no significant weather and/or obstructions to visibility.
 TC=TEMPERATURE CELSIUS

 * =Non NWS site. Station does not report precipitation (e.g. rain,
    snow, etc.), thunder, or fog.

DCZ001-MDZ009-015-VAZ040>042-051-053>054-150900-
WASHINGTON METRO

CITY           SKY/WX    TMP DP  RH WIND       PRES   REMARKS
WASHINGTON NAT CLOUDY    30  11  45 E7        30.14R
DULLES         CLOUDY    26  12  55 CALM      30.12R
ANDREWS AFB    CLOUDY    27  10  49 NE3         N/A
FT BELVOIR     CLOUDY    29  11  48 CALM      30.13S
QUANTICO       CLOUDY    32  15  49 E8        30.14S WCI  25
COLLEGE PARK*  CLOUDY    28   9  45 CALM      30.13R
LEESBURG*      CLOUDY    27  18  69 CALM      30.12S
MANASSAS*      CLOUDY    26  18  71 CALM      30.13R
GAITHERSBURG*  CLOUDY    23  13  65 CALM      30.11S

$$

MDZ006>007-011-014-150900-
BALTIMORE METRO

CITY           SKY/WX    TMP DP  RH WIND       PRES   REMARKS
BWI AIRPORT    CLOUDY    26  12  55 E3        30.13R
MD SCIENCE CTR   N/A     29  10  45 MISG      30.14R
MARTIN STATE   CLOUDY    28  14  54 CALM      30.15S
ANNAPOLIS      CLOUDY    30  14  51 NE3       30.13S
FORT MEADE*    CLOUDY    27  14  59 CALM      30.16R

$$

MDZ012-015-019>023-150900-
MARYLAND EASTERN SHORE

CITY           SKY/WX    TMP DP  RH WIND       PRES   REMARKS
OCEAN CITY     PTCLDY    26  16  65 N6        30.13R
SALISBURY      PTCLDY    26  14  60 N3        30.14R
BAY BRIDGE AP* CLOUDY    28  10  47 MISG      30.14S
CAMBRIDGE*     CLOUDY    28  10  47 NE7       30.15R
EASTON*        MOCLDY    29  10  44 NE6       30.17S

$$

MDZ017>025-150900-
SOUTHERN MARYLAND

CITY           SKY/WX    TMP DP  RH WIND       PRES   REMARKS
PATUXENT RIVER CLOUDY    31  15  52 NE9       30.12S WCI  23
ST INIGOES     CLOUDY    32  18  56 NE5       30.12S
LEONARDTOWN*   CLOUDY    30  18  59 E6        30.14S

$$

MDZ003>005-150900-
NORTH CENTRAL MARYLAND

CITY           SKY/WX    TMP DP  RH WIND       PRES   REMARKS
FREDERICK*     CLEAR     23  14  68 CALM      30.14S
HAGERSTOWN APT PTCLDY    24  13  62 S3        30.07R
WESTMINSTER*   CLEAR     23  14  68 CALM      30.08R

$$

MDZ501>502-150900-
WESTERN MARYLAND

CITY           SKY/WX    TMP DP  RH WIND       PRES   REMARKS
OAKLAND*       CLOUDY    19  18  93 SW5       29.86S
CUMBERLAND*    NOT AVBL

$$

VAZ025>031-150900-
SHENANDOAH VALLEY

CITY           SKY/WX    TMP DP  RH WIND       PRES   REMARKS
WINCHESTER*    CLOUDY    21  12  68 CALM      30.08R
FRONT ROYAL*   FAIR      25  12  58 MISG      30.07R
LURAY*         MOCLDY    27  18  69 NE3       30.06S
NEW MARKET*    MOCLDY    25  14  63 N5        30.05R
STAUNTON*      CLOUDY    26  21  81 CALM      30.05S
WAYNESBORO*    CLOUDY    27  18  67 SE7       30.03R

$$

WVZ021-048>050-054>055-150900-
EASTERN WEST VIRGINIA PANHANDLE

CITY           SKY/WX    TMP DP  RH WIND       PRES   REMARKS
MARTINSBURG    CLOUDY    22  13  68 CALM      30.08S
PETERSBURG*    PTCLDY    25  18  74 CALM      30.04R

$$

VAZ036>039-050-150900-
CENTRAL FOOTHILLS

CITY           SKY/WX    TMP DP  RH WIND       PRES   REMARKS
CHARLOTTESVILL CLOUDY    30  18  60 NE5       30.09S
CULPEPER*      CLOUDY    28  19  69 CALM      30.13R
ORANGE*        CLOUDY    28  18  64 CALM      30.11S
GORDONSVILLE*  CLOUDY    28  18  66 NE3       30.10S
WARRENTON*     CLOUDY    28  20  72 CALM      30.11S

$$

VAZ055>057-150900-
NORTH AND CENTRAL PIEDMONT

CITY           SKY/WX    TMP DP  RH WIND       PRES   REMARKS
FREDERICKSBRG* CLOUDY    31  18  56 CALM      30.12S
STAFFORD*      CLOUDY    30  17  56 CALM      30.17R

$$

NCZ024-NYZ072-PAZ021-071-VAZ022-071-150900-
OTHER REGIONAL OBSERVATIONS

CITY           SKY/WX    TMP DP  RH WIND       PRES   REMARKS
NEW YORK CITY  CLEAR     21   6  52 W6        30.13S
PHILADELPHIA   PTCLDY    25   6  44 NW3       30.14R
PITTSBURGH     CLOUDY    17  11  77 CALM      30.00S
ROANOKE        CLOUDY    32  23  69 CALM      30.05S
RICHMOND       CLOUDY    34  20  56 NE6       30.09F
RALEIGH        PTCLDY    33  28  81 NE7       30.02S

$$

ANZ530>537-150900-
MARINE OBSERVATIONS

STATION/POSITION TIME  TEMP    WIND        PRES
                       AIR SEA DIR/SP/G
                 (UTC) (F)     (DEG/KT/KT) (MB)
THOMAS PT LIGHT  0800   30 45   70/ 12/ 13   N/A
BALT KEY BRIDGE  0748   28      40/  6/  8 1020.7R
COVE POINT       0748   31      70/ 12/ 16 1020.8R
LEWISETTA        0748   34 41   80/ 10/ 13 1020.0R
SOLOMONS ISLAND  0748   32 44   50/ 10/ 14 1019.8R
PINEY POINT      0736           70/  5/  8   N/A

$$





USA.gov is the U.S. government's official web portal to all federal, state and local government web resources and services.